Showing default

ESSA 2 (OT-2), 2091

Orbit data source: Space-Track

ESSA 2 (OT-2), 2091 is a payload satellite owned by ESSA (US) in SSO that was launched on Mon, 28 Feb 1966 UTC via a THOR DELTA E launch vehicle from the Air Force Eastern Test Range (AFETR). Payload-class satellites include a variety of spacecraft equipped with specific instruments for various scientific and technological missions. These include communications satellites like Starlink; space stations such as the ISS; scientific satellites like the Hubble; Earth observation satellites from companies like Planet Labs, Umbra, and HawkEye 360; GPS; miniature CubeSats for education and research; and military/defense satellites.

Loading next visibility...
Identifier
2091, 1966-016A
Orbit
SSO
Country
Flag of USUS
Related business
Manufacturer
RCA/East Windsor
Mission
Non-operational spacecraft
Bus & Motor
TIROS I, Unknown motor
Mass
130 kg wet, 130 kg dry
Launch date (UTC)
1966-02-28 (61 years ago)
Launch vehicle
THOR DELTA E
Launch site
Air Force Eastern Test Range (AFETR)
Object type
Payload
Rocket body
Debris
Shape & HBR
CYL, 1.1 m
Radar Cross Section
Medium (>0.1 m² and <1 m²)

Expand to show TLE details & history
Last TLE update: 9 hours ago

TLE from 9 hours ago
0 ESSA 2 (OT-2)
1 02091U 66016A   26255.20925184 -.00000031  00000-0  64475-4 0  9997
2 02091 101.2218 162.2415 0039295  79.7064  87.4921 12.69432304804660
Epoch: 2026-09-12T05:01Z
TLE epoch observation values (Epoch: 2026-09-12T05:01:19.358Z)
Latitude
12.07438°
Longitude
-81.89036°
Altitude
1,384.908 km
Speed
7.168 km/s
True Right ascension
22h 58m 38s
True Declination
12° 00' 36"
Sunlit
Object was in full shadow at epoch
Visualization orbit readout
Latitude
Unknown
Longitude
Unknown
Altitude
Unknown
Speed
Unknown
Apparent Right ascension
Unknown
Apparent Declination
Unknown
Sunlit
N/A
Visualization observer readout
Local Sidereal Time
06:41:15
Azimuth
Unknown
Elevation
Unknown
Doppler factor
Unknown
Orbital elements
Apogee altitude
1,412.237 km
Perigee altitude
1,351.252 km
Semi-major axis
7,759.881 km
Eccentricity
0.00393
Inclination
101.2218°
RAAN
162.2415°
Arg. of periapsis
79.7064°
True anomaly
87.94205°
Mean anomaly
87.4921°
Eccentric anomaly
87.71707°
Mean motion
3.17512 °/min
Orbital period
113.38 mins
BSTAR
0.000064475
Loading maneuver chart data...
Computing Atmospheric mass density...
Loading historical data...
Loading historical data...
Loading historical data...
Loading historical data...
Loading historical data...
Loading historical data...
Loading historical data...
Other satellites on launch #16 in the year 1966 (1966-02-28 UTC)

Documentation

Showing up to 5 results
|